FW9155 Weather Reports


Display with metric or nautical units.
time (UTC)temp
F
wind
direction
speed
MPH
gust
MPH
rain 1hr
in
rain 24hr
in
rain mn
in
humidity
%
barometer
mb
20260507145854 57 258 8.0 16.0 0.00 0.00 0.00 66 1018.3
20260507145612 56 261 8.0 16.0 0.00 0.00 0.00 66 1018.4
20260507144849 56 231 9.0 18.0 0.00 0.00 0.00 67 1018.4
20260507144345 56 267 11.0 18.0 0.00 0.00 0.00 66 1018.5
20260507143844 56 263 9.0 17.0 0.00 0.00 0.00 68 1018.5
20260507143317 56 264 7.0 14.0 0.00 0.00 0.00 68 1018.5
20260507142749 55 266 6.0 14.0 0.00 0.00 0.00 70 1018.6
20260507142510 55 227 6.0 14.0 0.00 0.00 0.00 71 1018.5
20260507141746 54 215 7.0 14.0 0.00 0.00 0.00 73 1018.6
20260507141218 54 252 4.0 14.0 0.00 0.00 0.00 72 1018.6
20260507140936 53 229 2.0 7.0 0.00 0.00 0.00 75 1018.7
20260507140213 53 259 1.0 5.0 0.00 0.00 0.00 77 1018.7
20260507135645 53 238 1.0 4.0 0.00 0.00 0.00 78 1018.8
20260507135142 52 213 1.0 5.0 0.00 0.00 0.00 79 1018.8
20260507134614 52 249 1.0 7.0 0.00 0.00 0.00 80 1018.8
20260507134048 51 239 1.0 7.0 0.00 0.00 0.00 81 1018.8
20260507133548 51 235 1.0 2.0 0.00 0.00 0.00 82 1018.9
20260507133043 50 238 1.0 2.0 0.00 0.00 0.00 82 1018.9
20260507132544 50 246 1.0 5.0 0.00 0.00 0.00 83 1019.0
20260507132015 50 222 1.0 5.0 0.00 0.00 0.00 83 1019.0
20260507131514 49 231 1.0 5.0 0.00 0.00 0.00 84 1019.0
20260507131209 49 234 1.0 5.0 0.00 0.00 0.00 84 1018.9
20260507130443 48 213 1.0 2.0 0.00 0.00 0.00 85 1019.0
20260507125941 48 218 1.0 2.0 0.00 0.00 0.00 85 1019.0
20260507125417 48 214 1.0 2.0 0.00 0.00 0.00 85 1019.0
20260507124917 47 221 1.0 2.0 0.00 0.00 0.00 86 1019.0
20260507124417 47 217 1.0 1.0 0.00 0.00 0.00 86 1018.9
20260507123900 47 223 1.0 4.0 0.00 0.00 0.00 86 1018.8
20260507123402 47 221 1.0 4.0 0.00 0.00 0.00 86 1018.8
20260507122838 47 212 0.0 1.0 0.00 0.00 0.00 86 1018.9
20260507122329 46 213 0.0 1.0 0.00 0.00 0.00 86 1019.0
20260507121827 46 221 0.0 1.0 0.00 0.00 0.00 86 1019.0
20260507121325 46 221 0.0 1.0 0.00 0.00 0.00 86 1018.9
20260507120823 46 221 0.0 2.0 0.00 0.00 0.00 86 1018.9
20260507120326 46 221 0.0 2.0 0.00 0.00 0.00 86 1018.8
20260507115803 46 221 0.0 2.0 0.00 0.00 0.00 86 1018.7
20260507115246 46 221 0.0 2.0 0.00 0.00 0.00 86 1018.7
20260507114748 46 217 0.0 2.0 0.00 0.00 0.00 86 1018.6
20260507114229 46 232 1.0 2.0 0.00 0.00 0.00 86 1018.5
20260507113725 46 230 1.0 2.0 0.00 0.00 0.00 86 1018.5
20260507113443 46 230 1.0 2.0 0.00 0.00 0.00 85 1018.5
20260507112722 46 230 1.0 3.0 0.00 0.00 0.00 85 1018.6
20260507112223 46 230 2.0 3.0 0.00 0.00 0.00 85 1018.6
20260507111719 46 230 1.0 3.0 0.00 0.00 0.00 85 1018.5
20260507111220 46 230 1.0 2.0 0.00 0.00 0.00 85 1018.4
20260507110655 46 230 1.0 2.0 0.00 0.00 0.00 84 1018.4
20260507110131 46 230 1.0 2.0 0.00 0.00 0.00 84 1018.5
20260507105626 46 230 0.0 2.0 0.00 0.00 0.00 84 1018.5
20260507105125 46 235 0.0 2.0 0.00 0.00 0.00 84 1018.5
20260507104625 46 240 0.0 2.0 0.00 0.00 0.00 83 1018.5
20260507104123 47 244 0.0 2.0 0.00 0.00 0.00 83 1018.6
20260507103623 47 251 0.0 2.0 0.00 0.00 0.00 82 1018.6
20260507103055 47 260 1.0 2.0 0.00 0.00 0.00 82 1018.6
20260507102530 47 267 1.0 2.0 0.00 0.00 0.00 81 1018.6
20260507102003 47 267 1.0 2.0 0.00 0.00 0.00 81 1018.7
20260507101430 47 272 1.0 2.0 0.00 0.00 0.00 81 1018.7
20260507100904 47 263 1.0 1.0 0.00 0.00 0.00 81 1018.8
20260507100339 48 267 1.0 1.0 0.00 0.00 0.00 81 1018.9
20260507095813 48 267 1.0 2.0 0.00 0.00 0.00 81 1018.9
20260507095246 48 278 1.0 2.0 0.00 0.00 0.00 80 1019.0
20260507094943 48 279 1.0 2.0 0.00 0.00 0.00 80 1019.0
20260507094155 48 282 0.0 2.0 0.00 0.00 0.00 80 1019.0
20260507093648 48 269 0.0 1.0 0.00 0.00 0.00 81 1019.1
20260507093147 48 273 0.0 0.0 0.00 0.00 0.00 80 1018.9
20260507093108 49 273 0.0 0.0 0.00 0.00 0.00 80 1019.0
20260507092052 49 273 0.0 0.0 0.00 0.00 0.00 80 1018.9
20260507091550 49 273 0.0 0.0 0.00 0.00 0.00 80 1018.9
20260507091042 49 273 0.0 0.0 0.00 0.00 0.00 79 1019.0
20260507090511 49 273 0.0 0.0 0.00 0.00 0.00 79 1018.9
20260507090231 50 273 0.0 0.0 0.00 0.00 0.00 78 1018.9
20260507085506 50 273 0.0 0.0 0.00 0.00 0.00 77 1019.0
20260507085005 50 273 0.0 0.0 0.00 0.00 0.00 77 1019.0
20260507084439 50 273 0.0 1.0 0.00 0.00 0.00 77 1019.0
20260507083913 50 273 0.0 1.0 0.00 0.00 0.00 78 1019.1
20260507083347 50 273 0.0 1.0 0.00 0.01 0.00 78 1019.1
20260507082821 50 273 0.0 1.0 0.00 0.01 0.00 79 1019.1
20260507082514 49 273 0.0 1.0 0.00 0.02 0.00 79 1019.3
20260507081750 49 273 0.0 1.0 0.00 0.02 0.00 80 1019.2
20260507081222 49 291 0.0 1.0 0.00 0.03 0.00 80 1019.3
20260507080658 49 308 0.0 1.0 0.00 0.03 0.00 81 1019.3
20260507080354 49 318 1.0 2.0 0.00 0.03 0.00 81 1019.4
20260507075627 49 335 1.0 2.0 0.00 0.03 0.00 81 1019.3
20260507075102 49 333 1.0 1.0 0.00 0.03 0.00 82 1019.3
20260507074534 49 336 1.0 1.0 0.00 0.03 0.00 81 1019.3
20260507074032 50 328 0.0 1.0 0.00 0.03 0.00 81 1019.4
20260507073529 50 315 0.0 1.0 0.00 0.03 0.00 81 1019.4
20260507073249 49 303 0.0 1.0 0.00 0.03 0.00 81 1019.4
20260507072725 49 298 0.0 1.0 0.00 0.03 0.00 82 1019.3
20260507071959 49 288 0.0 2.0 0.00 0.04 0.00 82 1019.5
20260507071432 50 273 0.0 1.0 0.00 0.04 0.00 81 1019.5
20260507070904 50 273 0.0 2.0 0.00 0.04 0.00 81 1019.5
20260507070401 50 273 1.0 2.0 0.00 0.05 0.00 81 1019.6
20260507065833 50 265 1.0 1.0 0.00 0.05 0.00 81 1019.8
20260507065309 50 265 1.0 2.0 0.00 0.05 0.00 81 1019.8
20260507065005 50 257 1.0 2.0 0.00 0.05 0.00 80 1019.7
20260507064236 50 229 1.0 2.0 0.00 0.05 0.00 79 1019.6
20260507063707 50 227 1.0 2.0 0.00 0.05 0.00 78 1019.5
20260507063140 50 232 0.0 2.0 0.00 0.06 0.00 78 1019.5
20260507062638 50 230 1.0 3.0 0.00 0.06 0.00 78 1019.6
20260507062137 50 221 1.0 3.0 0.00 0.07 0.00 79 1019.5
20260507061608 50 217 1.0 3.0 0.00 0.07 0.00 79 1019.4
20260507061105 50 213 1.0 3.0 0.00 0.07 0.00 79 1019.6
20260507060541 50 222 0.0 2.0 0.00 0.07 0.00 80 1019.7
20260507060015 50 221 0.0 1.0 0.00 0.07 0.00 80 1019.8
20260507055508 50 221 0.0 1.0 0.00 0.07 0.00 80 1019.8
20260507055006 50 221 0.0 1.0 0.00 0.07 0.00 80 1019.8
20260507054440 50 217 0.0 1.0 0.00 0.07 0.00 80 1019.8
20260507053938 50 217 0.0 1.0 0.00 0.07 0.00 80 1019.7
20260507053410 50 216 0.0 1.0 0.00 0.07 0.00 81 1019.7
20260507052908 50 216 0.0 0.0 0.00 0.07 0.00 81 1019.7
20260507052411 49 216 0.0 0.0 0.00 0.07 0.00 82 1019.7
20260507051847 49 216 0.0 0.0 0.00 0.07 0.00 82 1019.7
20260507051347 49 216 0.0 1.0 0.00 0.07 0.00 81 1019.6
20260507050841 49 216 0.0 1.0 0.00 0.07 0.00 82 1019.7
20260507050341 49 212 0.0 2.0 0.00 0.07 0.00 81 1019.7
20260507050059 50 202 0.0 2.0 0.00 0.07 0.07 80 1019.7
20260507045332 50 198 0.0 1.0 0.00 0.07 0.07 79 1019.8
20260507044807 50 72 0.0 0.0 0.00 0.07 0.07 79 1019.6
20260507044725 50 72 0.0 1.0 0.00 0.07 0.07 78 1019.5
20260507043717 50 72 0.0 1.0 0.00 0.07 0.07 78 1019.7
20260507043151 51 72 0.0 1.0 0.00 0.07 0.07 77 1019.6
20260507042646 51 72 0.0 1.0 0.00 0.07 0.07 75 1019.7
20260507042144 51 72 0.0 0.0 0.00 0.07 0.07 76 1019.7
20260507041620 51 72 0.0 0.0 0.00 0.07 0.07 74 1019.6
20260507041106 51 72 0.0 0.0 0.00 0.07 0.07 73 1019.7
20260507040604 52 72 0.0 0.0 0.00 0.07 0.07 73 1019.7
20260507040107 52 72 0.0 0.0 0.00 0.07 0.07 73 1019.8
20260507035602 52 72 0.0 0.0 0.00 0.07 0.07 73 1019.8
20260507035101 52 72 0.0 1.0 0.00 0.07 0.07 73 1019.9
20260507034532 53 72 0.0 1.0 0.00 0.07 0.07 72 1019.8
20260507034030 53 72 0.0 1.0 0.00 0.07 0.07 70 1019.8
20260507033506 54 49 0.0 1.0 0.00 0.07 0.07 64 1019.8
20260507032937 54 46 0.0 1.0 0.00 0.07 0.07 63 1019.7
20260507032410 54 42 0.0 1.0 0.00 0.07 0.07 63 1019.8
20260507031850 54 36 0.0 1.0 0.00 0.07 0.07 63 1019.8
20260507031350 54 46 0.0 1.0 0.00 0.07 0.07 63 1019.8
20260507030848 54 28 0.0 1.0 0.00 0.07 0.07 63 1019.7
20260507030616 54 42 0.0 1.0 0.00 0.07 0.07 63 1019.7
20260507025820 54 42 0.0 1.0 0.00 0.07 0.07 63 1019.7
20260507025318 54 15 0.0 1.0 0.00 0.07 0.07 63 1019.7
20260507025008 54 10 0.0 1.0 0.00 0.07 0.07 63 1019.7
20260507024250 54 32 0.0 1.0 0.00 0.07 0.07 62 1019.6
20260507023740 54 55 0.0 1.0 0.00 0.07 0.07 63 1019.4
20260507023239 54 32 0.0 1.0 0.00 0.07 0.07 62 1019.6
20260507022710 54 9 0.0 1.0 0.00 0.07 0.07 61 1019.6
20260507022208 54 25 0.0 1.0 0.00 0.07 0.07 61 1019.5
20260507021640 54 30 0.0 1.0 0.00 0.07 0.07 60 1019.4
20260507021134 54 5 0.0 1.0 0.00 0.07 0.07 60 1019.4
20260507020632 55 26 0.0 1.0 0.00 0.07 0.07 60 1019.1
20260507020130 55 17 0.0 1.0 0.00 0.07 0.07 61 1019.1
20260507015626 55 26 0.0 1.0 0.00 0.07 0.07 61 1019.0
20260507015125 55 26 0.0 1.0 0.00 0.07 0.07 62 1018.8
20260507014555 55 36 0.0 1.0 0.00 0.07 0.07 61 1018.8
20260507014055 55 22 0.0 1.0 0.00 0.07 0.07 61 1018.7
20260507013526 56 23 0.0 1.0 0.00 0.07 0.07 61 1018.6
20260507013024 56 22 0.0 1.0 0.00 0.07 0.07 61 1018.6
20260507012456 56 24 0.0 1.0 0.00 0.07 0.07 60 1018.6
20260507011952 56 22 0.0 1.0 0.00 0.07 0.07 59 1018.5
20260507011712 56 26 0.0 1.0 0.00 0.07 0.07 59 1018.6
20260507010924 56 13 0.0 1.0 0.00 0.07 0.07 58 1018.6
20260507010411 56 28 0.0 1.0 0.00 0.07 0.07 57 1018.6
20260507005915 56 44 0.0 1.0 0.00 0.07 0.07 57 1018.5
20260507005347 57 55 0.0 1.0 0.00 0.07 0.07 56 1018.4
20260507004840 57 23 0.0 1.0 0.00 0.07 0.07 56 1018.4
20260507004314 57 0 0.0 2.0 0.00 0.07 0.07 55 1018.5
20260507003812 57 9 1.0 2.0 0.00 0.07 0.07 55 1018.5
20260507003311 57 0 1.0 2.0 0.00 0.07 0.07 54 1018.4
20260507002743 57 355 1.0 2.0 0.00 0.07 0.07 54 1018.5
20260507002244 58 0 1.0 3.0 0.00 0.07 0.07 53 1018.5
20260507001951 58 347 1.0 3.0 0.00 0.07 0.07 52 1018.4
20260507001229 58 336 1.0 2.0 0.00 0.07 0.07 51 1018.4
20260507000726 59 335 1.0 8.0 0.00 0.07 0.07 51 1018.3
20260507000714 59 9 2.0 10.0 0.00 0.07 0.07 50 1018.2
20260506235720 59 51 2.0 10.0 0.00 0.07 0.07 51 1018.2
20260506235215 59 19 3.0 10.0 0.00 0.07 0.07 50 1018.1
20260506234907 58 50 3.0 12.0 0.00 0.07 0.07 51 1018.2
20260506234121 59 34 2.0 8.0 0.00 0.07 0.07 52 1018.2
20260506233618 58 28 2.0 10.0 0.00 0.07 0.07 52 1018.1
20260506233316 58 61 2.0 10.0 0.00 0.07 0.07 52 1018.2
20260506232526 58 13 3.0 11.0 0.00 0.07 0.07 54 1018.2
20260506232002 58 46 4.0 11.0 0.00 0.07 0.07 52 1018.2
20260506231501 58 47 3.0 11.0 0.00 0.07 0.07 53 1018.2
20260506230938 58 30 4.0 12.0 0.00 0.07 0.07 53 1018.2
20260506230437 58 44 3.0 12.0 0.00 0.07 0.07 51 1018.2
20260506225912 59 23 2.0 8.0 0.00 0.07 0.07 50 1018.1
20260506225413 59 346 2.0 9.0 0.00 0.07 0.07 49 1018.2
20260506225109 58 346 2.0 9.0 0.00 0.07 0.07 50 1018.1
20260506224333 58 323 3.0 12.0 0.00 0.07 0.07 51 1018.0
20260506223833 59 57 3.0 12.0 0.00 0.07 0.07 49 1017.9
20260506223331 59 11 2.0 9.0 0.00 0.07 0.07 50 1017.9
20260506222834 58 355 2.0 11.0 0.00 0.07 0.07 48 1018.0
20260506222312 58 36 3.0 11.0 0.00 0.07 0.07 49 1018.0
20260506221812 59 71 4.0 11.0 0.00 0.07 0.07 48 1018.0
20260506221313 59 63 4.0 13.0 0.00 0.07 0.07 49 1018.1
20260506220813 60 55 3.0 13.0 0.00 0.07 0.07 49 1018.0
20260506220519 59 64 3.0 13.0 0.00 0.07 0.07 48 1017.9
20260506220011 59 63 3.0 13.0 0.00 0.08 0.07 47 1018.0
20260506215232 60 0 3.0 10.0 0.00 0.09 0.07 47 1018.1
20260506214727 60 355 3.0 9.0 0.00 0.09 0.07 48 1018.2
20260506214220 60 53 3.0 10.0 0.00 0.09 0.07 48 1018.1
20260506213947 59 11 4.0 11.0 0.00 0.09 0.07 48 1018.2
20260506213157 59 47 4.0 12.0 0.00 0.09 0.07 48 1018.3
20260506212633 59 355 3.0 11.0 0.00 0.09 0.07 49 1018.3
20260506212116 58 92 5.0 14.0 0.00 0.09 0.07 47 1018.2
20260506211605 58 40 5.0 14.0 0.00 0.09 0.07 48 1018.3
20260506211101 58 355 4.0 12.0 0.00 0.09 0.07 50 1018.4
20260506210601 58 112 4.0 12.0 0.00 0.09 0.07 49 1018.4
20260506205545 58 53 6.0 15.0 0.00 0.09 0.07 46 1018.6
20260506205308 59 55 5.0 14.0 0.00 0.09 0.07 48 1018.7
20260506204541 59 26 5.0 14.0 0.00 0.09 0.07 48 1018.8
20260506204259 58 93 6.0 12.0 0.00 0.09 0.07 51 1018.7
20260506203533 58 348 6.0 15.0 0.00 0.09 0.07 49 1018.8
20260506203029 58 63 4.0 15.0 0.00 0.09 0.07 49 1018.9
20260506202504 58 344 4.0 14.0 0.00 0.09 0.07 50 1019.0
20260506201938 58 49 5.0 14.0 0.00 0.09 0.07 52 1019.1
20260506201414 58 84 3.0 11.0 0.00 0.09 0.07 50 1019.1
20260506201132 58 46 3.0 10.0 0.00 0.09 0.07 51 1019.3
20260506200405 57 69 4.0 12.0 0.00 0.09 0.07 53 1019.3
20260506195840 57 71 5.0 14.0 0.00 0.09 0.07 50 1019.4
20260506195335 57 82 4.0 14.0 0.00 0.09 0.07 50 1019.4
20260506194831 56 112 5.0 13.0 0.00 0.09 0.07 49 1019.4
20260506194308 57 68 5.0 13.0 0.00 0.09 0.07 49 1019.6
20260506193739 57 44 6.0 14.0 0.00 0.09 0.07 51 1019.4
20260506193501 57 78 6.0 16.0 0.00 0.09 0.07 51 1019.4
20260506192733 56 96 6.0 16.0 0.00 0.09 0.07 50 1019.5
20260506192208 56 42 8.0 16.0 0.00 0.09 0.07 49 1019.5
20260506191704 56 48 6.0 16.0 0.00 0.09 0.07 49 1019.5
20260506191429 57 80 6.0 13.0 0.00 0.09 0.07 50 1019.4
20260506190658 56 70 5.0 13.0 0.00 0.09 0.07 50 1019.4
20260506190145 56 76 5.0 13.0 0.00 0.09 0.07 50 1019.4
20260506185915 56 20 7.0 13.0 0.00 0.09 0.07 52 1019.4
20260506185143 56 351 7.0 15.0 0.00 0.09 0.07 51 1019.4
20260506184906 56 70 5.0 15.0 0.00 0.09 0.07 52 1019.6
20260506184136 56 9 5.0 17.0 0.00 0.09 0.07 54 1019.6
20260506183607 56 355 5.0 17.0 0.00 0.09 0.07 51 1019.7
20260506183404 56 21 5.0 16.0 0.00 0.09 0.07 54 1019.6
20260506182056 56 59 3.0 13.0 0.00 0.09 0.07 56 1019.8
20260506181553 56 49 4.0 16.0 0.00 0.09 0.07 54 1019.9
20260506181057 56 57 3.0 16.0 0.00 0.09 0.07 53 1020.0
20260506180523 55 45 5.0 14.0 0.00 0.09 0.07 51 1019.9
20260506180020 55 46 5.0 14.0 0.00 0.09 0.07 50 1020.3
20260506175517 55 40 4.0 14.0 0.00 0.09 0.07 52 1020.3
20260506175014 55 63 6.0 17.0 0.00 0.09 0.07 57 1020.4
20260506174726 55 19 6.0 17.0 0.00 0.09 0.07 56 1020.3
20260506173937 54 55 5.0 16.0 0.00 0.09 0.07 58 1020.4
20260506173435 55 349 6.0 14.0 0.00 0.09 0.07 58 1020.4
20260506172923 54 40 6.0 14.0 0.00 0.09 0.07 59 1020.5
20260506172423 54 44 5.0 13.0 0.00 0.09 0.07 59 1020.4
20260506171900 54 42 5.0 13.0 0.00 0.09 0.07 58 1020.4
20260506171335 54 351 5.0 14.0 0.00 0.09 0.07 62 1020.5
20260506171054 54 32 6.0 14.0 0.00 0.09 0.07 61 1020.5
20260506170554 54 24 5.0 12.0 0.00 0.09 0.07 63 1020.5
20260506165833 54 51 4.0 13.0 0.00 0.09 0.07 61 1020.6
20260506165334 54 9 4.0 12.0 0.00 0.09 0.07 66 1020.5
20260506164805 53 74 6.0 14.0 0.00 0.09 0.07 64 1020.5
20260506164303 53 11 6.0 14.0 0.00 0.09 0.07 65 1020.0
20260506163738 53 0 6.0 16.0 0.00 0.09 0.07 68 1020.1
20260506163235 52 0 6.0 16.0 0.00 0.09 0.07 67 1020.4
20260506162736 53 345 4.0 14.0 0.00 0.09 0.07 69 1020.5
20260506162206 52 338 5.0 13.0 0.00 0.09 0.07 72 1020.4
20260506161637 51 343 5.0 13.0 0.00 0.09 0.07 70 1020.5
20260506161134 51 15 6.0 13.0 0.00 0.09 0.07 71 1020.5
20260506160607 51 0 5.0 12.0 0.00 0.09 0.07 72 1020.6
20260506160322 51 355 3.0 14.0 0.00 0.09 0.07 74 1020.6
20260506155605 51 9 2.0 14.0 0.00 0.09 0.07 73 1020.6
20260506155037 50 34 2.0 11.0 0.00 0.09 0.07 75 1020.4
20260506154512 50 323 2.0 11.0 0.00 0.09 0.07 74 1020.5
20260506153944 50 355 2.0 11.0 0.00 0.09 0.07 74 1020.0
20260506153415 49 56 2.0 11.0 0.00 0.09 0.07 76 1020.1
20260506152913 49 25 3.0 12.0 0.00 0.09 0.07 76 1020.3
20260506152607 49 342 2.0 12.0 0.00 0.09 0.07 77 1020.3
20260506151823 49 348 1.0 5.0 0.00 0.09 0.07 78 1020.4
20260506151322 49 41 2.0 10.0 0.00 0.09 0.07 77 1020.5
20260506150821 48 26 3.0 10.0 0.00 0.09 0.07 77 1020.4
20260506150319 48 34 2.0 9.0 0.00 0.09 0.07 78 1020.5